User: anonymous   Login
Location: Lake Runnemede Observatory
(43.4843°N, 72.3851°W)
Time: 15:06:21
(UTC-05:00)
Language:

SPOT 5 - Orbit

View from above orbital plane
View from above orbital plane
View from above satellite
View from above satellite

Ground track
Ground track

The orbit data is extracted from the following two-line orbital elements,

1 27421U 02021A   14328.50829659  .00000503  00000-0  25594-3 0  1531
2 27421 098.5431 026.3883 0001460 098.8120 018.1547 14.20114243651074
Epoch (UTC): 24 November 2014 12:11:56
Eccentricity: 0.0001460
inclination: 98.5431°
perigee height: 824 km
apogee height: 826 km
right ascension of ascending node: 26.3883°
argument of perigee: 98.8120°
revolutions per day: 14.20114243
mean anomaly at epoch: 18.1547°
orbit number at epoch: 65107

The dashed part of the orbit path shows where the satellite is in the earth's shadow,  

DLR